SHU22 VNKT-VNLK

Flight info

Callsign SHU22
Flight time 0h 30m
Altitude 11000
Route IGRIS1D KIMTI DCT VNPL
Aircraft DHC6/L-SDFGR/C

Departure

Time 2026-04-19 23:10
Airport Tribhuvan International Airport (VNKT)

Arrival

Time 2026-04-19 23:40
Airport Tenzing-Hillary Airport (VNLK)
Time Latitude Longitude Altitude Speed Heading
2026-04-19 22:49 27.70153 85.35903 4373 ft 0 kts 292°
2026-04-19 23:04 27.70153 85.35902 4372 ft 0 kts 300°
2026-04-19 23:04 27.70156 85.35902 4359 ft 1 kts
2026-04-19 23:04 27.70149 85.35916 4369 ft 9 kts 109°
2026-04-19 23:04 27.70086 85.35977 4371 ft 15 kts 161°
2026-04-19 23:05 27.69980 85.35941 4368 ft 18 kts 202°
2026-04-19 23:05 27.69867 85.35889 4366 ft 12 kts 203°
2026-04-19 23:05 27.69766 85.35843 4363 ft 19 kts 203°
2026-04-19 23:05 27.69636 85.35783 4358 ft 20 kts 201°
2026-04-19 23:06 27.69505 85.35725 4347 ft 20 kts 202°
2026-04-19 23:06 27.69375 85.35664 4353 ft 20 kts 202°
2026-04-19 23:06 27.69247 85.35605 4340 ft 20 kts 203°
2026-04-19 23:06 27.69117 85.35550 4340 ft 20 kts 188°
2026-04-19 23:07 27.69091 85.35555 4341 ft 0 kts 127°
2026-04-19 23:08 27.69086 85.35564 4340 ft 3 kts 122°
2026-04-19 23:08 27.69067 85.35598 4343 ft 8 kts 110°
2026-04-19 23:09 27.69129 85.35674 4347 ft 34 kts 21°
2026-04-19 23:09 27.69516 85.35837 4351 ft 83 kts 19°
2026-04-19 23:09 27.70156 85.36136 4484 ft 107 kts 22°
2026-04-19 23:09 27.70886 85.36433 4737 ft 115 kts 16°
2026-04-19 23:10 27.71689 85.36596 5028 ft 116 kts
2026-04-19 23:10 27.72411 85.36941 5250 ft 125 kts 51°
2026-04-19 23:10 27.72562 85.37974 5319 ft 136 kts 92°
2026-04-19 23:10 27.72972 85.38901 5537 ft 134 kts 49°
2026-04-19 23:11 27.73545 85.39681 5893 ft 128 kts 49°
2026-04-19 23:11 27.74147 85.40423 6189 ft 127 kts 59°
2026-04-19 23:11 27.74249 85.41422 6412 ft 134 kts 107°
2026-04-19 23:11 27.73945 85.42354 6786 ft 124 kts 106°
2026-04-19 23:12 27.73660 85.43266 6899 ft 124 kts 128°
2026-04-19 23:12 27.73034 85.44047 7069 ft 135 kts 129°
2026-04-19 23:12 27.72458 85.44909 7199 ft 142 kts 119°
2026-04-19 23:12 27.72062 85.45883 7515 ft 131 kts 107°
2026-04-19 23:13 27.71687 85.46828 7646 ft 141 kts 126°
2026-04-19 23:13 27.70818 85.47421 7818 ft 147 kts 163°
2026-04-19 23:13 27.69869 85.47544 8199 ft 138 kts 179°
2026-04-19 23:13 27.68845 85.47658 8346 ft 148 kts 174°
2026-04-19 23:14 27.67899 85.47965 8735 ft 143 kts 158°
2026-04-19 23:14 27.67096 85.48722 8764 ft 161 kts 122°
2026-04-19 23:14 27.66806 85.49895 9150 ft 149 kts 98°
2026-04-19 23:14 27.66498 85.51090 9141 ft 162 kts 123°
2026-04-19 23:15 27.65810 85.52080 9361 ft 161 kts 127°
2026-04-19 23:15 27.65124 85.53076 9616 ft 161 kts 129°
2026-04-19 23:15 27.64384 85.54004 9817 ft 160 kts 139°
2026-04-19 23:15 27.63535 85.54824 9919 ft 161 kts 143°
2026-04-19 23:16 27.62732 85.55680 10092 ft 160 kts 128°
2026-04-19 23:16 27.62240 85.56869 10170 ft 166 kts 110°
2026-04-19 23:16 27.61909 85.57996 10666 ft 148 kts 105°
2026-04-19 23:16 27.61653 85.59202 10713 ft 162 kts 96°
2026-04-19 23:17 27.61629 85.60382 11114 ft 148 kts 87°
2026-04-19 23:17 27.61381 85.61573 11197 ft 161 kts 121°
2026-04-19 23:17 27.60854 85.62689 11326 ft 172 kts 116°
2026-04-19 23:17 27.60361 85.63917 11577 ft 169 kts 113°
2026-04-19 23:18 27.59928 85.65176 11686 ft 178 kts 109°
2026-04-19 23:18 27.59576 85.66500 11840 ft 181 kts 104°
2026-04-19 23:18 27.59289 85.67884 12045 ft 179 kts 98°
2026-04-19 23:18 27.59198 85.69277 12232 ft 179 kts 83°
2026-04-19 23:19 27.59499 85.70626 12358 ft 173 kts 58°
2026-04-19 23:19 27.59840 85.71964 12269 ft 185 kts 84°
2026-04-19 23:19 27.59549 85.73448 12095 ft 200 kts 124°
2026-04-19 23:19 27.58638 85.74478 12477 ft 174 kts 145°
2026-04-19 23:20 27.57676 85.75389 12612 ft 180 kts 146°
2026-04-19 23:20 27.56719 85.76344 12628 ft 191 kts 143°
2026-04-19 23:20 27.55838 85.77495 12519 ft 194 kts 118°
2026-04-19 23:20 27.55163 85.78719 12874 ft 175 kts 130°
2026-04-19 23:21 27.54407 85.79870 12910 ft 186 kts 131°
2026-04-19 23:21 27.53610 85.81048 12891 ft 193 kts 133°
2026-04-19 23:21 27.52907 85.82376 12674 ft 199 kts 114°
2026-04-19 23:21 27.52462 85.83838 12731 ft 199 kts 107°
2026-04-19 23:22 27.52105 85.85358 12738 ft 200 kts 101°
2026-04-19 23:22 27.51895 85.86884 12853 ft 194 kts 92°
2026-04-19 23:22 27.51944 85.88395 12934 ft 191 kts 80°
2026-04-19 23:22 27.51856 85.89890 12968 ft 194 kts 96°
2026-04-19 23:23 27.51535 85.91380 13007 ft 197 kts 103°
2026-04-19 23:23 27.51177 85.92901 12938 ft 205 kts 102°
2026-04-19 23:23 27.51020 85.94426 13118 ft 187 kts 88°
2026-04-19 23:23 27.51023 85.95935 13002 ft 194 kts 84°
2026-04-19 23:24 27.51097 85.97507 12920 ft 205 kts 82°
2026-04-19 23:24 27.51209 85.99110 12991 ft 205 kts 85°
2026-04-19 23:24 27.51278 86.00755 12762 ft 219 kts 83°
2026-04-19 23:24 27.51285 86.02508 12593 ft 223 kts 88°
2026-04-19 23:25 27.51249 86.04263 12298 ft 230 kts 89°
2026-04-19 23:25 27.51185 86.06070 12161 ft 229 kts 90°
2026-04-19 23:25 27.51099 86.07853 12032 ft 229 kts 91°
2026-04-19 23:25 27.51005 86.09580 12091 ft 215 kts 94°
2026-04-19 23:26 27.50883 86.11240 12107 ft 214 kts 91°
2026-04-19 23:26 27.50890 86.12857 12415 ft 201 kts 86°
2026-04-19 23:26 27.50961 86.14455 12571 ft 205 kts 83°
2026-04-19 23:26 27.51069 86.16140 12266 ft 226 kts 81°
2026-04-19 23:27 27.51319 86.17694 13127 ft 167 kts 70°
2026-04-19 23:27 27.51675 86.19020 13074 ft 188 kts 65°
2026-04-19 23:27 27.51935 86.20436 13315 ft 189 kts 78°
2026-04-19 23:27 27.51883 86.22008 13314 ft 197 kts 96°
2026-04-19 23:28 27.51652 86.23536 13003 ft 218 kts 92°
2026-04-19 23:28 27.51982 86.25087 13139 ft 195 kts 64°
2026-04-19 23:28 27.52324 86.26569 13117 ft 194 kts 72°
2026-04-19 23:28 27.52666 86.28046 13150 ft 198 kts 70°
2026-04-19 23:29 27.52975 86.29583 13127 ft 202 kts 73°
2026-04-19 23:29 27.53462 86.31004 13109 ft 189 kts 54°
2026-04-19 23:29 27.53867 86.32408 13082 ft 192 kts 85°
2026-04-19 23:29 27.53937 86.33928 13083 ft 197 kts 83°
2026-04-19 23:30 27.54057 86.35456 13125 ft 188 kts 75°
2026-04-19 23:30 27.54540 86.36816 13113 ft 185 kts 59°
2026-04-19 23:30 27.55098 86.38131 13190 ft 191 kts 58°
2026-04-19 23:30 27.55631 86.39403 13755 ft 168 kts 61°
2026-04-19 23:31 27.56046 86.40657 13919 ft 178 kts 66°
2026-04-19 23:31 27.56269 86.41990 14303 ft 169 kts 75°
2026-04-19 23:31 27.56515 86.43312 14488 ft 169 kts 63°
2026-04-19 23:31 27.56971 86.44544 14678 ft 171 kts 56°
2026-04-19 23:32 27.57571 86.45720 14805 ft 176 kts 49°
2026-04-19 23:32 27.58226 86.46843 15064 ft 172 kts 50°
2026-04-19 23:32 27.58763 86.48079 15203 ft 181 kts 61°
2026-04-19 23:32 27.59228 86.49420 15420 ft 182 kts 59°
2026-04-19 23:33 27.59755 86.50689 15720 ft 179 kts 54°
2026-04-19 23:33 27.60370 86.51899 15812 ft 180 kts 50°
2026-04-19 23:33 27.60960 86.53163 15958 ft 181 kts 58°
2026-04-19 23:33 27.61490 86.54468 16006 ft 182 kts 54°
2026-04-19 23:34 27.62096 86.55749 16213 ft 184 kts 54°
2026-04-19 23:34 27.62609 86.57101 16406 ft 190 kts 61°
2026-04-19 23:34 27.63170 86.58373 16683 ft 177 kts 58°
2026-04-19 23:34 27.63683 86.59567 16977 ft 165 kts 59°
2026-04-19 23:35 27.64142 86.60825 16868 ft 180 kts 63°
2026-04-19 23:35 27.64648 86.62127 16775 ft 182 kts 62°
2026-04-19 23:35 27.65196 86.63494 16358 ft 191 kts 55°
2026-04-19 23:35 27.65611 86.64322 16080 ft 182 kts 52°
2026-04-19 23:36 27.66258 86.65545 15683 ft 178 kts 52°
2026-04-19 23:36 27.66921 86.66626 15592 ft 159 kts 46°
2026-04-19 23:36 27.67521 86.67611 15464 ft 156 kts 63°
2026-04-19 23:36 27.67648 86.68859 15086 ft 158 kts 80°
2026-04-19 23:37 27.67544 86.70056 14654 ft 158 kts 111°
2026-04-19 23:37 27.66849 86.71075 13876 ft 163 kts 131°
2026-04-19 23:37 27.65991 86.71938 12896 ft 174 kts 147°
2026-04-19 23:37 27.64820 86.72115 12263 ft 164 kts 194°
2026-04-19 23:38 27.63919 86.71348 11410 ft 167 kts 238°
2026-04-19 23:38 27.63568 86.70022 10455 ft 185 kts 279°
2026-04-19 23:38 27.64224 86.68979 10424 ft 152 kts 331°
2026-04-19 23:38 27.65220 86.68880 10397 ft 143 kts 15°
2026-04-19 23:39 27.66018 86.69635 9892 ft 153 kts 44°
2026-04-19 23:39 27.66792 86.70364 9586 ft 142 kts 36°
2026-04-19 23:39 27.67501 86.71060 9254 ft 127 kts 44°
2026-04-19 23:39 27.67976 86.71823 9152 ft 105 kts 50°
2026-04-19 23:40 27.68430 86.72487 9134 ft 113 kts 57°
2026-04-19 23:40 27.68759 86.73093 9396 ft 55 kts 57°
2026-04-19 23:40 27.68764 86.73180 9406 ft 0 kts 231°